Location: Wells
(51.2093°N, 2.6446°W)
Time: 07:33:19
(UTC+01:00)

PCSat - Pass Details

Date: 10 March 2026
Orbit: 780 x 790 km, 67.1° (Epoch: 13 April)

Event Time Altitude Azimuth Distance (km) Brightness Sun altitude
Exits shadow 04:50:44 - 316° (NW) 2,921 12.2 -17.2°
Reaches altitude 10° 04:52:57 10° 332° (NNW) 2,364 11.9 -16.8°
Maximum altitude 04:56:09 16° 9° (N) 1,997 11.9 -16.4°
Drops below altitude 10° 04:59:22 10° 46° (NE) 2,364 12.9 -15.9°
Sets 05:02:49 0° 68° (ENE) 3,292 14.5 -15.3°
